Weather in Tsalenjikha

Georgia     42°36′35″N   42°04′13″E
temp.,
°C
wind,
m/s
gust,
m/s
humid.,
%
clouds,
%
prec.,
mm/h
press.,
hPa
HPBL,
m
6 march, sat
sat601:00+5ene22460 0.0 102334
04:00+4ene23460 0.0 102437
07:00+3ene23467 0.0 102239
10:00+9e23443 0.0 1021123
13:00+15se23350 0.0 1018340
16:00+17s113233 0.0 1017398
19:00+12nnw0147100 0.0 101823
22:00+9s1155100 0.0 101924
7 march, sun
sun701:00+8s1167100 0.0 101922
04:00+7sse1179100 0.3 102054
07:00+5ene2494100 9.6 1020197
10:00+6wnw4893100 14.4 1022677
13:00+7wsw4675100 0.4 10221048
16:00+6wsw3564100 0.5 10231230
19:00+4w247095 0.1 1024378
22:00+2n117483 0.1 102527
8 march, mon
mon801:00+2ene117877 0.0 102422
04:00+1ene117981 0.0 102322
07:00+1e1178100 0.0 102221
10:00+4n116599 0.0 1021255
13:00+8w225195 0.0 1018793
16:00+8wnw335291 0.0 10171140
19:00+5w256689 0.0 1018428
22:00+3n017569 0.0 102022
9 march, tue
tue901:00+1e118027 0.0 102022
04:00+1ene117953 0.0 102022
07:00+1e117696 0.0 102122
10:00+4ese126697 0.0 1020321
13:00+9w225333 0.0 10201264
16:00+9w335455 0.0 10191467
19:00+5w36703 0.0 1021321
22:00+3nw11812 0.0 102422
10 march, wed
wed1001:00+2ne11830 0.0 102522
04:00+1ene12760 0.0 102422
07:000ene12630 0.0 102328
10:00+5ese14454 0.0 1022357
13:00+10se233436 0.0 1019768
16:00+12sse113258 0.0 10171013
19:00+8sw0147100 0.0 101722
22:00+7n1156100 0.0 101725